This is the latest recevied weather packets stored in our database for station/object KC0QBU-13. If no packets are shown the sender has not sent any weather packets the latest 10 day(s).
| Time | Temp. | Humidity | Pressure | Rain* | Wind** | Luminosity | Snow |
|---|---|---|---|---|---|---|---|
| 1777825971 | 22.78° C | 43% | 1014.4 hPa | 0 mm | - | - | - |
| 1777825641 | 22.22° C | 47% | 1014.3 hPa | 0 mm | - | - | - |
| 1777825341 | 22.22° C | 43% | 1014.3 hPa | 0 mm | - | - | - |
| 1777825041 | 21.67° C | 42% | 1014.3 hPa | 0 mm | - | - | - |
| 1777824741 | 21.67° C | 44% | 1014.3 hPa | 0 mm | - | - | - |
| 1777824441 | 21.67° C | 46% | 1014.4 hPa | 0 mm | - | - | - |
| 1777824111 | 21.11° C | 44% | 1014.3 hPa | 0 mm | - | - | - |
| 1777823811 | 21.11° C | 46% | 1014.4 hPa | 0 mm | - | - | - |
| 1777823481 | 21.11° C | 46% | 1014.4 hPa | 0 mm | - | - | - |
| 1777823181 | 20.56° C | 45% | 1014.4 hPa | 0 mm | - | - | - |
| 1777822881 | 20.56° C | 46% | 1014.4 hPa | 0 mm | - | - | - |
| 1777822551 | 20° C | 45% | 1014.3 hPa | 0 mm | - | - | - |
| 1777822251 | 20° C | 45% | 1014.3 hPa | 0 mm | - | - | - |
| 1777821921 | 20° C | 47% | 1014.3 hPa | 0 mm | - | - | - |
| 1777821591 | 19.44° C | 48% | 1014.5 hPa | 0 mm | - | - | - |
| 1777821291 | 18.89° C | 47% | 1014.5 hPa | 0 mm | - | - | - |
| 1777820991 | 18.89° C | 47% | 1014.7 hPa | 0 mm | - | - | - |
| 1777820661 | 18.33° C | 50% | 1014.6 hPa | 0 mm | - | - | - |
| 1777820361 | 17.78° C | 48% | 1014.7 hPa | 0 mm | - | - | - |
| 1777820031 | 17.22° C | 50% | 1014.7 hPa | 0 mm | - | - | - |
| 1777819701 | 17.22° C | 49% | 1014.8 hPa | 0 mm | - | - | - |
| 1777819371 | 16.67° C | 52% | 1014.9 hPa | 0 mm | - | - | - |
| 1777819041 | 16.11° C | 51% | 1014.9 hPa | 0 mm | - | - | - |
| 1777818711 | 15.56° C | 52% | 1014.9 hPa | 0 mm | - | - | - |
| 1777818411 | 15.56° C | 51% | 1014.9 hPa | 0 mm | - | - | - |
* Rain latest hour (hover to see other rain measurements)
** Current wind speed in m/s (hover to see current wind gust speed)